Time,TemperatureF,DewpointF,PressureIn,WindDirection,WindDirectionDegrees,WindSpeedMPH,WindSpeedGustMPH,Humidity,HourlyPrecipIn,Conditions,Clouds,dailyrainin,SoftwareType,DateUTC
2013-10-03 00:04:00,48.0,47.2,29.52,SW,225,0.0,0.0,97,0.00,CLR,,0.09,WeatherDisplay:10.37,2013-10-03 07:04:00,
2013-10-03 00:09:00,47.8,47.0,29.52,SW,225,0.0,0.0,97,0.00,CLR,,0.09,WeatherDisplay:10.37,2013-10-03 07:09:00,
2013-10-03 00:14:00,47.8,47.0,29.53,SW,225,0.0,0.0,97,0.00,CLR,,0.09,WeatherDisplay:10.37,2013-10-03 07:14:00,
2013-10-03 00:19:00,48.0,47.2,29.53,SW,225,0.0,0.0,97,0.00,CLR,,0.09,WeatherDisplay:10.37,2013-10-03 07:19:00,
2013-10-03 00:24:00,48.0,47.2,29.53,SW,225,0.0,0.0,97,0.00,CLR,,0.09,WeatherDisplay:10.37,2013-10-03 07:24:00,
2013-10-03 00:29:00,47.8,47.0,29.52,SW,225,0.0,0.0,97,0.00,CLR,,0.09,WeatherDisplay:10.37,2013-10-03 07:29:00,
2013-10-03 00:34:00,47.8,47.0,29.52,SW,225,0.0,0.0,97,0.00,CLR,,0.09,WeatherDisplay:10.37,2013-10-03 07:34:00,
2013-10-03 00:39:00,47.7,46.9,29.52,SW,225,0.0,0.0,97,0.00,CLR,,0.09,WeatherDisplay:10.37,2013-10-03 07:39:00,
2013-10-03 00:44:00,47.7,46.9,29.53,SW,225,1.1,0.0,97,0.00,CLR,,0.09,WeatherDisplay:10.37,2013-10-03 07:44:00,
2013-10-03 00:49:00,47.7,46.9,29.53,SW,225,0.0,0.0,97,0.00,CLR,,0.09,WeatherDisplay:10.37,2013-10-03 07:49:00,
2013-10-03 00:54:00,47.5,46.7,29.53,SW,225,0.0,0.0,97,0.00,CLR,,0.09,WeatherDisplay:10.37,2013-10-03 07:54:00,
2013-10-03 00:59:00,47.5,46.7,29.53,SW,225,0.0,0.0,97,0.00,CLR,,0.09,WeatherDisplay:10.37,2013-10-03 07:59:00,
2013-10-03 01:04:00,47.5,46.7,29.53,SW,225,0.0,0.0,97,0.00,CLR,,0.09,WeatherDisplay:10.37,2013-10-03 08:04:00,
2013-10-03 01:09:00,47.5,46.9,29.54,SW,225,0.0,0.0,98,0.00,CLR,,0.09,WeatherDisplay:10.37,2013-10-03 08:09:00,
2013-10-03 01:14:00,47.5,46.9,29.54,SW,225,1.1,0.0,98,0.00,CLR,,0.09,WeatherDisplay:10.37,2013-10-03 08:14:00,
2013-10-03 01:19:00,47.5,46.9,29.54,SW,225,0.0,0.0,98,0.00,CLR,,0.09,WeatherDisplay:10.37,2013-10-03 08:19:00,
2013-10-03 01:24:00,47.3,46.8,29.54,SW,225,0.0,0.0,98,0.00,CLR,,0.09,WeatherDisplay:10.37,2013-10-03 08:24:00,
2013-10-03 01:29:00,47.3,46.8,29.55,SW,225,0.0,0.0,98,0.00,CLR,,0.09,WeatherDisplay:10.37,2013-10-03 08:29:00,
2013-10-03 01:34:00,47.3,46.8,29.55,SW,225,0.0,0.0,98,0.00,CLR,,0.09,WeatherDisplay:10.37,2013-10-03 08:34:00,
2013-10-03 01:39:00,47.1,46.6,29.55,SW,225,0.0,0.0,98,0.00,CLR,,0.09,WeatherDisplay:10.37,2013-10-03 08:39:00,
2013-10-03 01:44:00,47.1,46.6,29.55,SW,225,0.0,0.0,98,0.00,CLR,,0.09,WeatherDisplay:10.37,2013-10-03 08:44:00,
2013-10-03 01:49:00,47.1,46.6,29.55,SW,225,0.0,0.0,98,0.00,CLR,,0.09,WeatherDisplay:10.37,2013-10-03 08:49:00,
2013-10-03 01:54:00,47.1,46.6,29.55,SW,225,0.0,0.0,98,0.00,CLR,,0.09,WeatherDisplay:10.37,2013-10-03 08:54:00,
2013-10-03 01:59:00,47.1,46.6,29.55,SW,225,0.0,0.0,98,0.00,CLR,,0.09,WeatherDisplay:10.37,2013-10-03 08:59:00,
2013-10-03 02:04:00,46.9,46.4,29.56,SW,225,0.0,0.0,98,0.00,CLR,,0.09,WeatherDisplay:10.37,2013-10-03 09:04:00,
2013-10-03 02:09:00,46.9,46.4,29.56,SW,225,0.0,0.0,98,0.00,CLR,,0.09,WeatherDisplay:10.37,2013-10-03 09:09:00,
2013-10-03 02:14:00,46.8,46.2,29.56,SW,225,0.0,0.0,98,0.00,CLR,,0.09,WeatherDisplay:10.37,2013-10-03 09:14:00,
2013-10-03 02:19:00,46.8,46.2,29.57,SW,225,0.0,0.0,98,0.00,CLR,,0.09,WeatherDisplay:10.37,2013-10-03 09:19:00,
2013-10-03 02:24:00,46.6,46.0,29.57,SW,225,1.1,0.0,98,0.00,CLR,,0.09,WeatherDisplay:10.37,2013-10-03 09:24:00,
2013-10-03 02:29:00,46.6,46.0,29.57,SW,225,0.0,0.0,98,0.00,CLR,,0.09,WeatherDisplay:10.37,2013-10-03 09:29:00,
2013-10-03 02:34:00,46.4,45.9,29.57,SW,225,1.1,0.0,98,0.00,CLR,,0.09,WeatherDisplay:10.37,2013-10-03 09:34:00,
2013-10-03 02:40:00,46.4,45.9,29.57,SW,225,0.0,0.0,98,0.00,CLR,,0.09,WeatherDisplay:10.37,2013-10-03 09:40:00,
2013-10-03 02:45:00,46.4,45.9,29.57,SW,225,0.0,0.0,98,0.00,CLR,,0.09,WeatherDisplay:10.37,2013-10-03 09:45:00,
2013-10-03 02:50:00,46.2,45.7,29.58,SW,225,0.0,0.0,98,0.00,CLR,,0.09,WeatherDisplay:10.37,2013-10-03 09:50:00,
2013-10-03 02:55:00,46.2,45.7,29.58,SW,225,0.0,0.0,98,0.00,CLR,,0.09,WeatherDisplay:10.37,2013-10-03 09:55:00,
2013-10-03 03:00:00,46.2,45.7,29.57,SW,225,0.0,0.0,98,0.00,CLR,,0.09,WeatherDisplay:10.37,2013-10-03 10:00:00,
2013-10-03 03:05:00,46.2,45.7,29.58,SW,225,0.0,0.0,98,0.00,CLR,,0.09,WeatherDisplay:10.37,2013-10-03 10:05:00,
2013-10-03 03:10:00,46.0,45.5,29.58,SW,225,0.0,0.0,98,0.00,CLR,,0.09,WeatherDisplay:10.37,2013-10-03 10:10:00,
2013-10-03 03:15:00,46.2,45.7,29.59,SW,225,0.0,0.0,98,0.00,CLR,,0.09,WeatherDisplay:10.37,2013-10-03 10:15:00,
2013-10-03 03:20:00,46.0,45.5,29.59,SW,225,0.0,0.0,98,0.00,CLR,,0.09,WeatherDisplay:10.37,2013-10-03 10:20:00,
2013-10-03 03:25:00,46.0,45.5,29.59,SW,225,0.0,0.0,98,0.00,CLR,,0.09,WeatherDisplay:10.37,2013-10-03 10:25:00,
2013-10-03 03:30:00,46.2,45.7,29.59,SW,225,0.0,0.0,98,0.00,CLR,,0.09,WeatherDisplay:10.37,2013-10-03 10:30:00,
2013-10-03 03:35:00,45.9,45.3,29.59,NNW,338,0.0,0.0,98,0.00,CLR,,0.09,WeatherDisplay:10.37,2013-10-03 10:35:00,
2013-10-03 03:40:00,45.9,45.3,29.60,NNW,338,0.0,0.0,98,0.00,CLR,,0.09,WeatherDisplay:10.37,2013-10-03 10:40:00,
2013-10-03 03:45:00,45.9,45.3,29.60,NNW,338,0.0,0.0,98,0.00,CLR,,0.09,WeatherDisplay:10.37,2013-10-03 10:45:00,
2013-10-03 03:50:00,45.9,45.3,29.59,NNW,338,0.0,0.0,98,0.00,CLR,,0.09,WeatherDisplay:10.37,2013-10-03 10:50:00,
2013-10-03 03:55:00,45.9,45.3,29.59,NNW,338,0.0,0.0,98,0.00,CLR,,0.09,WeatherDisplay:10.37,2013-10-03 10:55:00,
2013-10-03 04:00:00,45.9,45.3,29.60,NNW,338,0.0,0.0,98,0.00,CLR,CLR,0.09,WeatherDisplay:10.37,2013-10-03 11:00:00,
2013-10-03 04:05:00,45.9,45.3,29.60,NNW,338,0.0,0.0,98,0.00,CLR,,0.09,WeatherDisplay:10.37,2013-10-03 11:05:00,
2013-10-03 04:10:00,45.9,45.3,29.60,NNW,338,0.0,0.0,98,0.00,CLR,,0.09,WeatherDisplay:10.37,2013-10-03 11:10:00,
2013-10-03 04:15:00,45.9,45.3,29.61,NNW,338,0.0,0.0,98,0.00,CLR,,0.09,WeatherDisplay:10.37,2013-10-03 11:15:00,
2013-10-03 04:20:00,45.9,45.3,29.61,NNW,338,0.0,0.0,98,0.00,CLR,,0.09,WeatherDisplay:10.37,2013-10-03 11:20:00,
2013-10-03 04:25:00,45.9,45.3,29.61,NNW,338,0.0,0.0,98,0.00,CLR,CLR,0.09,WeatherDisplay:10.37,2013-10-03 11:25:00,
2013-10-03 04:30:00,45.8,45.3,29.61,NNW,338,0.0,0.0,98,0.00,CLR,CLR,0.09,WeatherDisplay:10.37,2013-10-03 11:30:00,
2013-10-03 04:35:00,45.9,45.3,29.61,NNW,338,0.0,0.0,98,0.00,CLR,,0.09,WeatherDisplay:10.37,2013-10-03 11:35:00,
2013-10-03 04:40:00,45.7,45.1,29.60,NNW,338,0.0,0.0,98,0.00,CLR,CLR,0.09,WeatherDisplay:10.37,2013-10-03 11:40:00,
2013-10-03 04:45:00,45.7,45.1,29.61,NNW,338,0.0,0.0,98,0.00,CLR,CLR,0.09,WeatherDisplay:10.37,2013-10-03 11:45:00,
2013-10-03 04:50:00,45.7,45.1,29.61,NNW,338,0.0,0.0,98,0.00,CLR,,0.09,WeatherDisplay:10.37,2013-10-03 11:50:00,
2013-10-03 04:55:00,45.5,45.0,29.60,NNW,338,0.0,0.0,98,0.00,CLR,CLR,0.09,WeatherDisplay:10.37,2013-10-03 11:55:00,
2013-10-03 05:00:00,45.3,44.8,29.60,NNW,338,0.0,0.0,98,0.00,CLR,,0.09,WeatherDisplay:10.37,2013-10-03 12:00:00,
2013-10-03 05:05:00,45.3,44.8,29.61,NNW,338,0.0,0.0,98,0.00,CLR,CLR,0.09,WeatherDisplay:10.37,2013-10-03 12:05:00,
2013-10-03 05:10:00,45.0,44.4,29.61,NNW,338,0.0,0.0,98,0.00,CLR,,0.09,WeatherDisplay:10.37,2013-10-03 12:10:00,
2013-10-03 05:15:00,44.8,44.3,29.61,NNW,338,0.0,0.0,98,0.00,CLR,,0.09,WeatherDisplay:10.37,2013-10-03 12:15:00,
2013-10-03 05:20:00,44.6,44.1,29.61,NNW,338,0.0,0.0,98,0.00,CLR,,0.09,WeatherDisplay:10.37,2013-10-03 12:20:00,
2013-10-03 05:25:00,44.4,43.9,29.60,NNW,338,0.0,0.0,98,0.00,CLR,CLR,0.09,WeatherDisplay:10.37,2013-10-03 12:25:00,
2013-10-03 05:30:00,44.1,43.5,29.61,NNW,338,0.0,0.0,98,0.00,CLR,,0.09,WeatherDisplay:10.37,2013-10-03 12:30:00,
2013-10-03 05:35:00,43.9,43.4,29.62,NNW,329,0.0,0.0,98,0.00,CLR,CLR,0.09,WeatherDisplay:10.37,2013-10-03 12:35:00,
2013-10-03 05:40:00,43.9,43.4,29.62,NW,315,0.0,0.0,98,0.00,CLR,,0.09,WeatherDisplay:10.37,2013-10-03 12:40:00,
2013-10-03 05:45:00,43.7,43.2,29.62,NW,315,0.0,0.0,98,0.00,CLR,CLR,0.09,WeatherDisplay:10.37,2013-10-03 12:45:00,
2013-10-03 05:50:00,43.5,43.0,29.62,NW,315,0.0,0.0,98,0.00,CLR,CLR,0.09,WeatherDisplay:10.37,2013-10-03 12:50:00,
2013-10-03 05:55:00,43.3,42.8,29.63,NW,315,0.0,0.0,98,0.00,CLR,CLR,0.09,WeatherDisplay:10.37,2013-10-03 12:55:00,
2013-10-03 06:00:00,43.2,42.7,29.63,NW,315,0.0,0.0,98,0.00,CLR,CLR,0.09,WeatherDisplay:10.37,2013-10-03 13:00:00,
2013-10-03 06:05:00,43.2,42.6,29.63,NW,315,0.0,0.0,98,0.00,CLR,CLR,0.09,WeatherDisplay:10.37,2013-10-03 13:05:00,
2013-10-03 06:10:00,43.2,42.6,29.63,NW,315,0.0,0.0,98,0.00,CLR,CLR,0.09,WeatherDisplay:10.37,2013-10-03 13:10:00,
2013-10-03 06:15:00,43.3,42.8,29.63,NW,315,0.0,0.0,98,0.00,CLR,,0.09,WeatherDisplay:10.37,2013-10-03 13:15:00,
2013-10-03 06:20:00,43.2,42.6,29.64,NW,315,0.0,0.0,98,0.00,CLR,CLR,0.09,WeatherDisplay:10.37,2013-10-03 13:20:00,
2013-10-03 06:25:00,43.3,42.8,29.64,NW,315,1.1,0.0,98,0.00,CLR,,0.09,WeatherDisplay:10.37,2013-10-03 13:25:00,
2013-10-03 06:30:00,43.3,42.8,29.64,NW,315,0.0,0.0,98,0.00,CLR,,0.09,WeatherDisplay:10.37,2013-10-03 13:30:00,
2013-10-03 06:35:00,43.2,42.7,29.64,NNW,336,0.0,0.0,98,0.00,CLR,CLR,0.09,WeatherDisplay:10.37,2013-10-03 13:35:00,
2013-10-03 06:40:00,43.2,42.6,29.64,North,0,0.0,0.0,98,0.00,CLR,,0.09,WeatherDisplay:10.37,2013-10-03 13:40:00,
2013-10-03 06:45:00,42.9,42.4,29.64,North,0,0.0,0.0,98,0.00,CLR,CLR,0.09,WeatherDisplay:10.37,2013-10-03 13:45:00,
2013-10-03 06:50:00,42.6,42.1,29.65,North,0,0.0,0.0,98,0.00,CLR,,0.09,WeatherDisplay:10.37,2013-10-03 13:50:00,
2013-10-03 06:55:00,42.4,41.9,29.65,North,0,0.0,0.0,98,0.00,CLR,,0.09,WeatherDisplay:10.37,2013-10-03 13:55:00,
2013-10-03 07:00:00,42.3,41.7,29.65,North,0,0.0,0.0,98,0.00,CLR,CLR,0.09,WeatherDisplay:10.37,2013-10-03 14:00:00,
2013-10-03 07:05:00,42.1,41.6,29.65,North,0,0.0,0.0,98,0.00,CLR,CLR,0.09,WeatherDisplay:10.37,2013-10-03 14:05:00,
2013-10-03 07:10:00,41.9,41.4,29.66,North,0,0.0,0.0,98,0.00,CLR,,0.09,WeatherDisplay:10.37,2013-10-03 14:10:00,
2013-10-03 07:15:00,41.7,41.2,29.66,North,0,0.0,0.0,98,0.00,CLR,CLR,0.09,WeatherDisplay:10.37,2013-10-03 14:15:00,
2013-10-03 07:20:00,41.7,41.2,29.66,North,0,0.0,0.0,98,0.00,CLR,,0.09,WeatherDisplay:10.37,2013-10-03 14:20:00,
2013-10-03 07:25:00,41.7,41.2,29.65,North,0,0.0,0.0,98,0.00,CLR,CLR,0.09,WeatherDisplay:10.37,2013-10-03 14:25:00,
2013-10-03 07:30:00,41.7,41.2,29.66,North,0,0.0,0.0,98,0.00,CLR,CLR,0.09,WeatherDisplay:10.37,2013-10-03 14:30:00,
2013-10-03 07:35:00,41.9,41.4,29.66,East,90,0.0,0.0,98,0.00,CLR,,0.09,WeatherDisplay:10.37,2013-10-03 14:35:00,
2013-10-03 07:40:00,41.9,41.4,29.67,SE,135,0.0,0.0,98,0.00,CLR,,0.09,WeatherDisplay:10.37,2013-10-03 14:40:00,
2013-10-03 07:45:00,42.1,41.6,29.67,ESE,111,0.0,0.0,98,0.00,CLR,CLR,0.09,WeatherDisplay:10.37,2013-10-03 14:45:00,
2013-10-03 07:50:00,42.3,41.7,29.66,SE,135,1.1,0.0,98,0.00,CLR,,0.09,WeatherDisplay:10.37,2013-10-03 14:50:00,
2013-10-03 07:55:00,42.3,42.0,29.67,SE,135,0.0,0.0,99,0.00,CLR,,0.11,WeatherDisplay:10.37,2013-10-03 14:55:00,
2013-10-03 08:00:00,42.4,42.2,29.67,SE,135,0.0,0.0,99,0.01,RA,RA,0.11,WeatherDisplay:10.37,2013-10-03 15:00:00,
2013-10-03 08:05:00,42.6,42.4,29.67,SE,135,1.1,0.0,99,0.01,RA,,0.11,WeatherDisplay:10.37,2013-10-03 15:05:00,
2013-10-03 08:10:00,42.6,42.4,29.68,SE,135,0.0,0.0,99,0.00,CLR,CLR,0.11,WeatherDisplay:10.37,2013-10-03 15:10:00,
2013-10-03 08:15:00,42.6,42.4,29.67,SE,135,0.0,0.0,99,0.00,CLR,CLR,0.11,WeatherDisplay:10.37,2013-10-03 15:15:00,
2013-10-03 08:20:00,42.6,42.4,29.68,SE,135,0.0,0.0,99,0.01,CLR,,0.11,WeatherDisplay:10.37,2013-10-03 15:20:00,
2013-10-03 08:25:00,42.8,42.5,29.68,SE,135,0.0,0.0,99,0.01,CLR,,0.11,WeatherDisplay:10.37,2013-10-03 15:25:00,
2013-10-03 08:30:00,43.0,42.7,29.68,SE,135,1.1,0.0,99,0.01,CLR,,0.11,WeatherDisplay:10.37,2013-10-03 15:30:00,
2013-10-03 08:35:00,43.4,43.1,29.68,SE,135,0.0,0.0,99,0.00,CLR,CLR,0.11,WeatherDisplay:10.37,2013-10-03 15:35:00,
2013-10-03 08:40:00,43.7,43.4,29.68,SE,135,0.0,0.0,99,0.01,CLR,,0.11,WeatherDisplay:10.37,2013-10-03 15:40:00,
2013-10-03 08:45:00,43.9,43.6,29.68,SW,225,1.1,0.0,99,0.01,CLR,,0.11,WeatherDisplay:10.37,2013-10-03 15:45:00,
2013-10-03 08:50:00,43.9,43.6,29.68,SW,219,0.0,0.0,99,0.00,CLR,CLR,0.11,WeatherDisplay:10.37,2013-10-03 15:50:00,
2013-10-03 08:55:00,44.2,44.0,29.69,SW,225,0.0,0.0,99,0.00,CLR,CLR,0.11,WeatherDisplay:10.37,2013-10-03 15:55:00,
2013-10-03 09:00:00,44.6,44.3,29.69,SW,225,0.0,0.0,99,0.00,CLR,,0.11,WeatherDisplay:10.37,2013-10-03 16:00:00,
2013-10-03 09:05:00,45.1,44.8,29.70,SW,225,0.0,0.0,99,0.00,CLR,CLR,0.11,WeatherDisplay:10.37,2013-10-03 16:05:00,
2013-10-03 09:10:00,45.9,45.6,29.69,SW,225,0.0,0.0,99,0.00,CLR,,0.11,WeatherDisplay:10.37,2013-10-03 16:10:00,
2013-10-03 09:15:00,46.2,46.0,29.70,SW,225,0.0,0.0,99,0.00,CLR,,0.11,WeatherDisplay:10.37,2013-10-03 16:15:00,
2013-10-03 09:20:00,46.6,46.3,29.70,SW,225,0.0,0.0,99,0.00,CLR,CLR,0.11,WeatherDisplay:10.37,2013-10-03 16:20:00,
2013-10-03 09:25:00,47.3,47.0,29.70,SW,225,0.0,0.0,99,0.00,CLR,CLR,0.11,WeatherDisplay:10.37,2013-10-03 16:25:00,
2013-10-03 09:30:00,46.9,46.7,29.70,WSW,251,0.0,0.0,99,0.00,CLR,CLR,0.11,WeatherDisplay:10.37,2013-10-03 16:30:00,
2013-10-03 09:35:00,46.8,46.5,29.70,West,270,1.1,0.0,99,0.00,CLR,,0.11,WeatherDisplay:10.37,2013-10-03 16:35:00,
2013-10-03 09:40:00,46.9,46.7,29.71,West,270,1.1,0.0,99,0.00,CLR,,0.11,WeatherDisplay:10.37,2013-10-03 16:40:00,
2013-10-03 09:45:00,47.1,46.9,29.71,West,270,0.0,0.0,99,0.00,CLR,CLR,0.11,WeatherDisplay:10.37,2013-10-03 16:45:00,
2013-10-03 09:50:00,47.1,46.9,29.71,SW,225,1.1,0.0,99,0.00,CLR,,0.11,WeatherDisplay:10.37,2013-10-03 16:50:00,
2013-10-03 09:55:00,47.1,46.9,29.71,SW,225,1.1,0.0,99,0.00,CLR,,0.11,WeatherDisplay:10.37,2013-10-03 16:55:00,
2013-10-03 10:00:00,47.8,47.5,29.71,SW,225,0.0,0.0,99,0.00,CLR,CLR,0.11,WeatherDisplay:10.37,2013-10-03 17:00:00,
2013-10-03 10:05:00,47.8,47.6,29.72,West,270,1.1,0.0,99,0.00,CLR,,0.11,WeatherDisplay:10.37,2013-10-03 17:05:00,
2013-10-03 10:10:00,47.7,47.1,29.71,West,270,1.1,0.0,98,0.00,CLR,,0.11,WeatherDisplay:10.37,2013-10-03 17:10:00,
2013-10-03 10:15:00,48.1,47.8,29.72,WSW,248,0.0,0.0,99,0.00,CLR,CLR,0.11,WeatherDisplay:10.37,2013-10-03 17:15:00,
2013-10-03 10:20:00,50.7,50.4,29.72,West,270,1.1,1.1,99,0.00,CLR,,0.11,WeatherDisplay:10.37,2013-10-03 17:20:00,
2013-10-03 10:25:00,51.8,51.5,29.72,South,180,1.1,0.0,99,0.00,CLR,,0.11,WeatherDisplay:10.37,2013-10-03 17:25:00,
2013-10-03 10:30:00,51.7,51.2,29.72,SW,225,0.0,0.0,98,0.00,CLR,CLR,0.11,WeatherDisplay:10.37,2013-10-03 17:30:00,
2013-10-03 10:35:00,51.3,50.4,29.72,West,270,1.1,0.0,97,0.00,CLR,,0.11,WeatherDisplay:10.37,2013-10-03 17:35:00,
2013-10-03 10:40:00,52.3,51.5,29.72,WSW,243,0.0,0.0,97,0.00,CLR,CLR,0.11,WeatherDisplay:10.37,2013-10-03 17:40:00,
2013-10-03 10:45:00,53.1,51.7,29.72,SW,225,1.1,1.1,95,0.00,CLR,,0.11,WeatherDisplay:10.37,2013-10-03 17:45:00,
2013-10-03 10:50:00,53.1,50.8,29.72,SW,225,1.1,0.0,92,0.00,CLR,,0.11,WeatherDisplay:10.37,2013-10-03 17:50:00,
2013-10-03 10:55:00,52.7,49.8,29.72,WSW,244,1.0,0.0,90,0.00,CLR,CLR,0.11,WeatherDisplay:10.37,2013-10-03 17:55:00,
2013-10-03 11:00:00,52.0,48.9,29.72,WSW,246,0.0,0.0,89,0.00,CLR,CLR,0.11,WeatherDisplay:10.37,2013-10-03 18:00:00,
2013-10-03 11:05:00,52.0,48.8,29.72,West,270,1.1,1.1,89,0.00,CLR,,0.11,WeatherDisplay:10.37,2013-10-03 18:05:00,
2013-10-03 11:10:00,51.9,48.8,29.72,West,270,0.0,0.0,89,0.00,CLR,CLR,0.11,WeatherDisplay:10.37,2013-10-03 18:10:00,
2013-10-03 11:15:00,52.6,49.4,29.72,West,267,0.0,0.0,89,0.00,CLR,CLR,0.11,WeatherDisplay:10.37,2013-10-03 18:15:00,
2013-10-03 11:20:00,54.5,50.4,29.73,West,270,1.1,0.0,86,0.00,CLR,,0.11,WeatherDisplay:10.37,2013-10-03 18:20:00,
2013-10-03 11:25:00,55.8,51.6,29.72,WSW,258,1.0,0.0,86,0.00,CLR,CLR,0.11,WeatherDisplay:10.37,2013-10-03 18:25:00,
2013-10-03 11:30:00,58.1,52.3,29.73,SW,225,2.3,0.0,81,0.00,CLR,,0.11,WeatherDisplay:10.37,2013-10-03 18:30:00,
2013-10-03 11:35:00,58.3,50.4,29.73,SW,233,0.0,0.0,75,0.00,CLR,CLR,0.11,WeatherDisplay:10.37,2013-10-03 18:35:00,
2013-10-03 11:40:00,56.5,49.0,29.73,West,270,2.3,0.0,76,0.00,CLR,,0.11,WeatherDisplay:10.37,2013-10-03 18:40:00,
2013-10-03 11:45:00,55.2,48.8,29.73,SW,225,1.1,0.0,79,0.00,CLR,,0.11,WeatherDisplay:10.37,2013-10-03 18:45:00,
2013-10-03 11:50:00,54.7,49.0,29.74,SW,230,0.0,0.0,81,0.00,CLR,CLR,0.11,WeatherDisplay:10.37,2013-10-03 18:50:00,
2013-10-03 11:55:00,55.5,50.1,29.73,SSW,201,0.0,0.0,82,0.00,CLR,CLR,0.11,WeatherDisplay:10.37,2013-10-03 18:55:00,
2013-10-03 12:00:00,55.9,48.8,29.73,West,270,1.1,1.1,77,0.00,CLR,,0.11,WeatherDisplay:10.37,2013-10-03 19:00:00,
2013-10-03 12:05:00,57.8,50.3,29.74,West,262,1.0,0.0,76,0.00,CLR,CLR,0.11,WeatherDisplay:10.37,2013-10-03 19:05:00,
2013-10-03 12:10:00,59.4,50.3,29.74,West,270,2.3,0.0,72,0.00,CLR,,0.11,WeatherDisplay:10.37,2013-10-03 19:10:00,
2013-10-03 12:15:00,60.8,50.6,29.73,SW,225,3.5,3.5,69,0.00,CLR,,0.11,WeatherDisplay:10.37,2013-10-03 19:15:00,
2013-10-03 12:20:00,62.2,51.5,29.73,WSW,238,1.0,0.0,68,0.00,CLR,CLR,0.11,WeatherDisplay:10.37,2013-10-03 19:20:00,
2013-10-03 12:25:00,63.7,50.4,29.73,West,270,1.1,1.6,62,0.00,CLR,,0.11,WeatherDisplay:10.37,2013-10-03 19:25:00,
2013-10-03 12:30:00,63.3,50.5,29.73,West,270,2.3,2.3,63,0.00,CLR,,0.11,WeatherDisplay:10.37,2013-10-03 19:30:00,
2013-10-03 12:35:00,64.8,53.2,29.74,WSW,239,0.0,0.0,66,0.00,CLR,CLR,0.11,WeatherDisplay:10.37,2013-10-03 19:35:00,
2013-10-03 12:40:00,66.0,50.8,29.74,WSW,248,1.1,1.1,58,0.00,CLR,,0.11,WeatherDisplay:10.37,2013-10-03 19:40:00,
2013-10-03 12:45:00,66.0,50.3,29.74,NW,305,1.0,0.0,57,0.00,CLR,CLR,0.11,WeatherDisplay:10.37,2013-10-03 19:45:00,
2013-10-03 12:50:00,65.7,50.0,29.74,West,270,1.1,1.1,57,0.00,CLR,,0.11,WeatherDisplay:10.37,2013-10-03 19:50:00,
2013-10-03 12:55:00,64.9,49.3,29.73,West,270,3.5,3.5,57,0.00,CLR,,0.11,WeatherDisplay:10.37,2013-10-03 19:55:00,
2013-10-03 13:00:00,64.3,48.3,29.74,West,265,2.0,0.0,56,0.00,CLR,CLR,0.11,WeatherDisplay:10.37,2013-10-03 20:00:00,
2013-10-03 13:05:00,64.0,50.8,29.74,South,180,3.1,3.1,62,0.00,CLR,,0.11,WeatherDisplay:10.37,2013-10-03 20:05:00,
2013-10-03 13:10:00,61.2,48.5,29.73,West,270,5.8,5.8,63,0.00,CLR,,0.11,WeatherDisplay:10.37,2013-10-03 20:10:00,
2013-10-03 13:15:00,59.4,48.0,29.74,West,260,1.0,0.0,66,0.00,CLR,CLR,0.11,WeatherDisplay:10.37,2013-10-03 20:15:00,
2013-10-03 13:20:00,58.1,47.2,29.74,West,270,3.5,3.5,67,0.00,CLR,,0.11,WeatherDisplay:10.37,2013-10-03 20:20:00,
2013-10-03 13:25:00,58.6,48.8,29.74,WNW,283,0.0,0.0,70,0.00,CLR,CLR,0.11,WeatherDisplay:10.37,2013-10-03 20:25:00,
2013-10-03 13:30:00,59.7,48.7,29.74,WNW,284,1.0,0.0,67,0.00,CLR,CLR,0.11,WeatherDisplay:10.37,2013-10-03 20:30:00,
2013-10-03 13:35:00,59.7,47.5,29.74,West,270,3.5,3.5,64,0.00,CLR,,0.11,WeatherDisplay:10.37,2013-10-03 20:35:00,
2013-10-03 13:40:00,59.9,47.3,29.74,West,270,3.1,3.1,63,0.00,CLR,,0.11,WeatherDisplay:10.37,2013-10-03 20:40:00,
2013-10-03 13:45:00,59.5,46.9,29.74,West,275,0.0,0.0,63,0.00,CLR,CLR,0.11,WeatherDisplay:10.37,2013-10-03 20:45:00,
2013-10-03 13:50:00,59.9,47.7,29.74,West,270,1.1,1.1,64,0.00,CLR,,0.11,WeatherDisplay:10.37,2013-10-03 20:50:00,
2013-10-03 13:55:00,59.7,46.7,29.74,WSW,247,2.0,0.0,62,0.00,CLR,CLR,0.11,WeatherDisplay:10.37,2013-10-03 20:55:00,
2013-10-03 14:00:00,59.2,46.2,29.74,West,270,4.6,4.6,62,0.00,CLR,,0.11,WeatherDisplay:10.37,2013-10-03 21:00:00,
2013-10-03 14:05:00,59.0,46.8,29.74,WSW,244,0.0,0.0,64,0.00,CLR,CLR,0.11,WeatherDisplay:10.37,2013-10-03 21:05:00,
2013-10-03 14:10:00,58.5,46.8,29.74,WSW,256,0.0,0.0,65,0.00,CLR,CLR,0.11,WeatherDisplay:10.37,2013-10-03 21:10:00,
2013-10-03 14:15:00,57.7,46.5,29.74,West,270,1.1,1.6,66,0.00,CLR,,0.11,WeatherDisplay:10.37,2013-10-03 21:15:00,
2013-10-03 14:20:00,57.4,46.1,29.74,SW,225,3.5,3.5,66,0.00,CLR,,0.11,WeatherDisplay:10.37,2013-10-03 21:20:00,
2013-10-03 14:25:00,57.7,47.2,29.74,West,260,1.0,0.0,68,0.00,CLR,CLR,0.11,WeatherDisplay:10.37,2013-10-03 21:25:00,
2013-10-03 14:30:00,57.9,46.6,29.75,SW,225,3.5,3.5,66,0.00,CLR,,0.11,WeatherDisplay:10.37,2013-10-03 21:30:00,
2013-10-03 14:35:00,58.1,46.4,29.75,West,266,2.0,0.0,65,0.00,CLR,CLR,0.11,WeatherDisplay:10.37,2013-10-03 21:35:00,
2013-10-03 14:40:00,58.5,47.1,29.74,West,269,0.0,0.0,66,0.00,CLR,CLR,0.11,WeatherDisplay:10.37,2013-10-03 21:40:00,
2013-10-03 14:45:00,58.6,47.3,29.74,West,269,1.0,0.0,66,0.00,CLR,CLR,0.11,WeatherDisplay:10.37,2013-10-03 21:45:00,
2013-10-03 14:50:00,58.1,46.8,29.75,West,270,5.8,5.8,66,0.00,CLR,,0.11,WeatherDisplay:10.37,2013-10-03 21:50:00,
2013-10-03 14:55:00,57.9,47.8,29.75,West,270,1.1,1.1,69,0.00,CLR,,0.11,WeatherDisplay:10.37,2013-10-03 21:55:00,
2013-10-03 15:00:00,57.7,46.9,29.75,West,270,2.3,0.0,67,0.00,CLR,,0.11,WeatherDisplay:10.37,2013-10-03 22:00:00,
2013-10-03 15:05:00,57.7,47.6,29.75,West,271,1.0,0.0,69,0.00,CLR,CLR,0.11,WeatherDisplay:10.37,2013-10-03 22:05:00,
2013-10-03 15:10:00,57.7,47.2,29.75,West,268,0.0,0.0,68,0.00,CLR,CLR,0.11,WeatherDisplay:10.37,2013-10-03 22:10:00,
2013-10-03 15:15:00,57.7,46.9,29.75,NW,315,3.5,3.5,67,0.00,CLR,,0.11,WeatherDisplay:10.37,2013-10-03 22:15:00,
2013-10-03 15:20:00,57.9,47.4,29.74,West,271,1.0,0.0,68,0.00,CLR,CLR,0.11,WeatherDisplay:10.37,2013-10-03 22:20:00,
2013-10-03 15:25:00,57.9,46.6,29.75,West,259,1.0,0.0,66,0.00,CLR,CLR,0.11,WeatherDisplay:10.37,2013-10-03 22:25:00,
2013-10-03 15:30:00,58.1,46.8,29.75,SW,225,1.1,0.0,66,0.00,CLR,,0.11,WeatherDisplay:10.37,2013-10-03 22:30:00,
2013-10-03 15:35:00,58.3,47.4,29.75,WSW,253,0.0,0.0,67,0.00,CLR,CLR,0.11,WeatherDisplay:10.37,2013-10-03 22:35:00,
2013-10-03 15:40:00,57.9,46.6,29.75,West,269,1.0,0.0,66,0.00,CLR,CLR,0.11,WeatherDisplay:10.37,2013-10-03 22:40:00,
2013-10-03 15:45:00,57.4,46.5,29.75,West,268,0.0,0.0,67,0.00,CLR,CLR,0.11,WeatherDisplay:10.37,2013-10-03 22:45:00,
2013-10-03 15:50:00,57.4,46.9,29.75,West,270,1.0,0.0,68,0.00,CLR,CLR,0.11,WeatherDisplay:10.37,2013-10-03 22:50:00,
2013-10-03 15:55:00,57.7,46.8,29.75,WSW,258,0.0,0.0,67,0.00,CLR,CLR,0.11,WeatherDisplay:10.37,2013-10-03 22:55:00,
2013-10-03 16:00:00,57.7,46.9,29.74,SW,225,3.5,3.5,67,0.00,CLR,,0.11,WeatherDisplay:10.37,2013-10-03 23:00:00,
2013-10-03 16:05:00,57.8,47.3,29.74,West,269,0.0,0.0,68,0.00,RA,RA,0.00,WeatherDisplay:10.37,2013-10-03 23:05:00,
2013-10-03 16:10:00,57.9,47.4,29.75,North,0,2.3,0.0,68,0.00,RA,,0.00,WeatherDisplay:10.37,2013-10-03 23:10:00,
2013-10-03 16:15:00,57.9,47.4,29.75,West,268,0.0,0.0,68,0.00,CLR,CLR,0.00,WeatherDisplay:10.37,2013-10-03 23:15:00,
2013-10-03 16:20:00,58.1,47.6,29.75,West,270,2.3,2.3,68,0.00,CLR,,0.00,WeatherDisplay:10.37,2013-10-03 23:20:00,
2013-10-03 16:25:00,58.3,48.2,29.75,NW,315,1.1,0.0,69,0.00,CLR,,0.00,WeatherDisplay:10.37,2013-10-03 23:25:00,
2013-10-03 16:30:00,58.5,47.9,29.75,West,269,0.0,0.0,68,0.00,CLR,CLR,0.00,WeatherDisplay:10.37,2013-10-03 23:30:00,
2013-10-03 16:35:00,59.0,48.1,29.75,West,270,3.5,0.0,67,0.00,CLR,,0.00,WeatherDisplay:10.37,2013-10-03 23:35:00,
2013-10-03 16:40:00,59.2,48.2,29.75,West,271,0.0,0.0,67,0.00,CLR,CLR,0.00,WeatherDisplay:10.37,2013-10-03 23:40:00,
2013-10-03 16:45:00,59.0,47.7,29.75,West,271,0.0,0.0,66,0.00,CLR,CLR,0.00,WeatherDisplay:10.37,2013-10-03 23:45:00,
2013-10-03 16:50:00,58.8,47.5,29.75,West,270,2.3,0.0,66,0.00,CLR,,0.00,WeatherDisplay:10.37,2013-10-03 23:50:00,
2013-10-03 16:55:00,58.6,47.7,29.75,West,270,0.0,0.0,67,0.00,CLR,CLR,0.00,WeatherDisplay:10.37,2013-10-03 23:55:00,
2013-10-03 17:00:00,58.5,47.9,29.75,West,270,3.5,3.5,68,0.00,CLR,,0.00,WeatherDisplay:10.37,2013-10-04 00:00:00,
2013-10-03 17:05:00,58.5,47.5,29.75,West,270,5.8,5.8,67,0.00,CLR,,0.00,WeatherDisplay:10.37,2013-10-04 00:05:00,
2013-10-03 17:10:00,58.1,47.6,29.75,West,270,3.5,3.5,68,0.00,CLR,,0.00,WeatherDisplay:10.37,2013-10-04 00:10:00,
2013-10-03 17:15:00,57.9,47.0,29.75,WSW,242,2.0,0.0,67,0.00,CLR,CLR,0.00,WeatherDisplay:10.37,2013-10-04 00:15:00,
2013-10-03 17:20:00,57.6,46.7,29.75,West,270,4.5,4.5,67,0.00,CLR,,0.00,WeatherDisplay:10.37,2013-10-04 00:20:00,
2013-10-03 17:25:00,57.4,46.9,29.75,West,262,1.0,0.0,68,0.00,CLR,CLR,0.00,WeatherDisplay:10.37,2013-10-04 00:25:00,
2013-10-03 17:30:00,57.2,47.1,29.75,West,270,2.3,2.3,69,0.00,CLR,,0.00,WeatherDisplay:10.37,2013-10-04 00:30:00,
2013-10-03 17:35:00,56.8,46.8,29.76,West,270,3.5,3.5,69,0.00,CLR,,0.00,WeatherDisplay:10.37,2013-10-04 00:35:00,
2013-10-03 17:40:00,56.5,46.4,29.75,West,266,0.0,0.0,69,0.00,CLR,CLR,0.00,WeatherDisplay:10.37,2013-10-04 00:40:00,
2013-10-03 17:45:00,56.5,46.8,29.75,West,270,1.0,0.0,70,0.00,CLR,CLR,0.00,WeatherDisplay:10.37,2013-10-04 00:45:00,
2013-10-03 17:50:00,56.3,46.6,29.75,WSW,258,1.0,0.0,70,0.00,CLR,CLR,0.00,WeatherDisplay:10.37,2013-10-04 00:50:00,
2013-10-03 17:55:00,56.3,46.3,29.75,WSW,250,1.0,0.0,69,0.00,CLR,CLR,0.00,WeatherDisplay:10.37,2013-10-04 00:55:00,
2013-10-03 18:00:00,56.1,46.5,29.75,West,270,4.6,4.6,70,0.00,CLR,,0.00,WeatherDisplay:10.37,2013-10-04 01:00:00,
2013-10-03 18:05:00,55.8,46.1,29.76,West,270,4.6,4.6,70,0.00,CLR,,0.00,WeatherDisplay:10.37,2013-10-04 01:05:00,
2013-10-03 18:10:00,55.4,46.5,29.76,West,270,3.5,3.5,72,0.00,CLR,,0.00,WeatherDisplay:10.37,2013-10-04 01:10:00,
2013-10-03 18:15:00,55.0,46.2,29.76,West,270,0.0,0.0,72,0.00,CLR,,0.00,WeatherDisplay:10.37,2013-10-04 01:15:00,
2013-10-03 18:20:00,54.7,46.2,29.76,West,270,0.0,0.0,73,0.00,CLR,CLR,0.00,WeatherDisplay:10.37,2013-10-04 01:20:00,
2013-10-03 18:25:00,54.1,46.0,29.76,West,270,0.0,0.0,74,0.00,CLR,,0.00,WeatherDisplay:10.37,2013-10-04 01:25:00,
2013-10-03 18:30:00,53.6,45.9,29.76,West,270,0.0,0.0,75,0.00,CLR,,0.00,WeatherDisplay:10.37,2013-10-04 01:30:00,
2013-10-03 18:35:00,53.1,45.3,29.76,West,270,0.0,0.0,75,0.00,CLR,CLR,0.00,WeatherDisplay:10.37,2013-10-04 01:35:00,
2013-10-03 18:40:00,52.5,45.5,29.76,West,270,0.0,0.0,77,0.00,CLR,,0.00,WeatherDisplay:10.37,2013-10-04 01:40:00,
2013-10-03 18:45:00,52.2,45.2,29.76,West,270,0.0,0.0,77,0.00,CLR,CLR,0.00,WeatherDisplay:10.37,2013-10-04 01:45:00,
2013-10-03 18:50:00,51.7,45.0,29.77,West,270,0.0,0.0,78,0.00,CLR,CLR,0.00,WeatherDisplay:10.37,2013-10-04 01:50:00,
2013-10-03 18:55:00,51.3,45.0,29.77,West,270,0.0,0.0,79,0.00,CLR,,0.00,WeatherDisplay:10.37,2013-10-04 01:55:00,
2013-10-03 19:00:00,51.3,45.0,29.77,West,270,0.0,0.0,79,0.00,CLR,,0.00,WeatherDisplay:10.37,2013-10-04 02:00:00,
2013-10-03 19:05:00,50.6,44.9,29.77,West,270,0.0,0.0,81,0.00,CLR,CLR,0.00,WeatherDisplay:10.37,2013-10-04 02:05:00,
2013-10-03 19:10:00,50.4,44.7,29.77,West,270,0.0,0.0,81,0.00,CLR,,0.00,WeatherDisplay:10.37,2013-10-04 02:10:00,
2013-10-03 19:15:00,50.0,44.4,29.77,West,270,0.0,0.0,81,0.00,CLR,CLR,0.00,WeatherDisplay:10.37,2013-10-04 02:15:00,
2013-10-03 19:20:00,49.6,44.4,29.77,West,270,0.0,0.0,82,0.00,CLR,,0.00,WeatherDisplay:10.37,2013-10-04 02:20:00,
2013-10-03 19:25:00,49.5,44.5,29.77,West,270,0.0,0.0,83,0.00,CLR,,0.00,WeatherDisplay:10.37,2013-10-04 02:25:00,
2013-10-03 19:30:00,49.3,44.3,29.78,West,270,0.0,0.0,83,0.00,CLR,CLR,0.00,WeatherDisplay:10.37,2013-10-04 02:30:00,
2013-10-03 19:35:00,49.3,44.6,29.77,West,270,0.0,0.0,84,0.00,CLR,,0.00,WeatherDisplay:10.37,2013-10-04 02:35:00,
2013-10-03 19:40:00,49.3,45.0,29.77,West,270,0.0,0.0,85,0.00,CLR,,0.00,WeatherDisplay:10.37,2013-10-04 02:40:00,
2013-10-03 19:45:00,49.3,45.0,29.78,West,270,0.0,0.0,85,0.00,CLR,CLR,0.00,WeatherDisplay:10.37,2013-10-04 02:45:00,
2013-10-03 19:50:00,49.1,45.1,29.78,West,270,0.0,0.0,86,0.00,CLR,,0.00,WeatherDisplay:10.37,2013-10-04 02:50:00,
2013-10-03 19:55:00,48.9,44.9,29.78,West,270,0.0,0.0,86,0.00,CLR,,0.00,WeatherDisplay:10.37,2013-10-04 02:55:00,
2013-10-03 20:00:00,48.7,44.7,29.78,West,270,0.0,0.0,86,0.00,CLR,,0.00,WeatherDisplay:10.37,2013-10-04 03:00:00,
2013-10-03 20:05:00,48.6,44.6,29.77,West,270,0.0,0.0,86,0.00,CLR,,0.00,WeatherDisplay:10.37,2013-10-04 03:05:00,
2013-10-03 20:10:00,48.4,44.7,29.78,SSW,202,0.0,0.0,87,0.00,CLR,CLR,0.00,WeatherDisplay:10.37,2013-10-04 03:10:00,
2013-10-03 20:15:00,48.2,44.5,29.78,SE,135,0.7,0.0,87,0.00,CLR,,0.00,WeatherDisplay:10.37,2013-10-04 03:15:00,
2013-10-03 20:20:00,48.0,44.3,29.78,SE,135,1.1,0.0,87,0.00,CLR,,0.00,WeatherDisplay:10.37,2013-10-04 03:20:00,
2013-10-03 20:25:00,47.8,44.5,29.78,SE,135,0.0,0.0,88,0.00,CLR,CLR,0.00,WeatherDisplay:10.37,2013-10-04 03:25:00,
2013-10-03 20:30:00,47.7,44.3,29.78,SE,135,0.0,0.0,88,0.00,CLR,,0.00,WeatherDisplay:10.37,2013-10-04 03:30:00,
2013-10-03 20:35:00,47.5,44.4,29.78,SE,135,0.0,0.0,89,0.00,CLR,CLR,0.00,WeatherDisplay:10.37,2013-10-04 03:35:00,
2013-10-03 20:40:00,47.3,44.2,29.79,SE,135,0.0,0.0,89,0.00,CLR,CLR,0.00,WeatherDisplay:10.37,2013-10-04 03:40:00,
2013-10-03 20:45:00,47.1,44.0,29.78,SE,135,1.1,0.0,89,0.00,CLR,,0.00,WeatherDisplay:10.37,2013-10-04 03:45:00,
2013-10-03 20:50:00,46.9,43.9,29.79,SE,135,1.1,0.0,89,0.00,CLR,,0.00,WeatherDisplay:10.37,2013-10-04 03:50:00,
2013-10-03 20:55:00,46.8,43.7,29.79,SE,135,0.0,0.0,89,0.00,CLR,CLR,0.00,WeatherDisplay:10.37,2013-10-04 03:55:00,
2013-10-03 21:00:00,46.6,43.8,29.79,SSE,150,0.0,0.0,90,0.00,CLR,CLR,0.00,WeatherDisplay:10.37,2013-10-04 04:00:00,
2013-10-03 21:31:00,45.5,43.0,29.79,SE,135,0.0,0.0,91,0.00,CLR,,0.00,WeatherDisplay:10.37,2013-10-04 04:31:00,
2013-10-03 21:32:00,45.5,43.0,29.79,SE,135,0.0,0.0,91,0.00,CLR,,0.00,WeatherDisplay:10.37,2013-10-04 04:32:00,
2013-10-03 21:33:00,45.5,43.0,29.79,SE,135,0.0,0.0,91,0.00,CLR,,0.00,WeatherDisplay:10.37,2013-10-04 04:33:00,
2013-10-03 21:35:00,45.5,43.0,29.79,SE,135,0.0,0.0,91,0.00,CLR,,0.00,WeatherDisplay:10.37,2013-10-04 04:35:00,
2013-10-03 21:36:00,45.5,43.0,29.79,SE,135,0.0,0.0,91,0.00,CLR,,0.00,WeatherDisplay:10.37,2013-10-04 04:36:00,
2013-10-03 21:37:00,45.5,43.0,29.79,SE,135,0.0,0.0,91,0.00,CLR,,0.00,WeatherDisplay:10.37,2013-10-04 04:37:00,
2013-10-03 21:39:00,45.3,42.8,29.80,SE,135,0.0,0.0,91,0.00,CLR,,0.00,WeatherDisplay:10.37,2013-10-04 04:39:00,
2013-10-03 21:43:00,45.3,42.8,29.80,SE,135,0.0,0.0,91,0.00,CLR,,0.00,WeatherDisplay:10.37,2013-10-04 04:43:00,
2013-10-03 21:44:00,45.1,42.7,29.80,SE,135,0.0,0.0,91,0.00,CLR,,0.00,WeatherDisplay:10.37,2013-10-04 04:44:00,
2013-10-03 21:45:00,45.1,42.7,29.79,SE,135,0.0,0.0,91,0.00,CLR,,0.00,WeatherDisplay:10.37,2013-10-04 04:45:00,
2013-10-03 21:48:00,45.0,42.5,29.80,SE,135,0.0,0.0,91,0.00,CLR,,0.00,WeatherDisplay:10.37,2013-10-04 04:48:00,
2013-10-03 21:50:00,45.0,42.5,29.80,SE,135,0.0,0.0,91,0.00,CLR,,0.00,WeatherDisplay:10.37,2013-10-04 04:50:00,
2013-10-03 21:52:00,45.0,42.5,29.80,SE,135,0.0,0.0,91,0.00,CLR,,0.00,WeatherDisplay:10.37,2013-10-04 04:52:00,
2013-10-03 21:56:00,44.8,42.3,29.80,SE,135,0.0,0.0,91,0.00,CLR,,0.00,WeatherDisplay:10.37,2013-10-04 04:56:00,
2013-10-03 21:57:00,44.8,42.3,29.80,SE,135,0.0,0.0,91,0.00,CLR,,0.00,WeatherDisplay:10.37,2013-10-04 04:57:00,
2013-10-03 22:01:00,44.6,42.4,29.80,SE,135,0.0,0.0,92,0.00,CLR,,0.00,WeatherDisplay:10.37,2013-10-04 05:01:00,
2013-10-03 22:03:00,44.6,42.4,29.80,SE,135,0.0,0.0,92,0.00,CLR,,0.00,WeatherDisplay:10.37,2013-10-04 05:03:00,
2013-10-03 22:04:00,44.6,42.4,29.80,SE,135,0.0,0.0,92,0.00,CLR,,0.00,WeatherDisplay:10.37,2013-10-04 05:04:00,
2013-10-03 22:06:00,44.6,42.4,29.80,SE,135,0.0,0.0,92,0.00,CLR,,0.00,WeatherDisplay:10.37,2013-10-04 05:06:00,
2013-10-03 22:07:00,44.6,42.4,29.80,SE,135,0.0,0.0,92,0.00,CLR,,0.00,WeatherDisplay:10.37,2013-10-04 05:07:00,
2013-10-03 22:10:00,44.4,42.2,29.80,SE,135,0.0,0.0,92,0.00,CLR,CLR,0.00,WeatherDisplay:10.37,2013-10-04 05:10:00,
2013-10-03 22:11:00,44.4,42.2,29.79,SE,135,0.0,0.0,92,0.00,CLR,,0.00,WeatherDisplay:10.37,2013-10-04 05:11:00,
2013-10-03 22:14:00,44.4,42.2,29.79,SE,135,0.0,0.0,92,0.00,CLR,,0.00,WeatherDisplay:10.37,2013-10-04 05:14:00,
2013-10-03 22:15:00,44.4,42.2,29.79,SE,135,0.0,0.0,92,0.00,CLR,,0.00,WeatherDisplay:10.37,2013-10-04 05:15:00,
2013-10-03 22:17:00,44.4,42.2,29.79,SE,135,0.0,0.0,92,0.00,CLR,,0.00,WeatherDisplay:10.37,2013-10-04 05:17:00,
2013-10-03 22:18:00,44.4,42.2,29.79,SE,135,0.0,0.0,92,0.00,CLR,,0.00,WeatherDisplay:10.37,2013-10-04 05:18:00,
2013-10-03 22:25:00,44.2,42.1,29.80,SE,135,0.0,0.0,92,0.00,CLR,,0.00,WeatherDisplay:10.37,2013-10-04 05:25:00,
2013-10-03 22:31:00,44.2,42.1,29.80,SE,135,0.0,0.0,92,0.00,CLR,,0.00,WeatherDisplay:10.37,2013-10-04 05:31:00,
2013-10-03 22:36:00,44.2,42.3,29.79,SE,135,0.0,0.0,93,0.00,CLR,,0.00,WeatherDisplay:10.37,2013-10-04 05:36:00,
2013-10-03 22:41:00,44.1,42.2,29.80,SE,135,0.0,0.0,93,0.00,CLR,,0.00,WeatherDisplay:10.37,2013-10-04 05:41:00,
2013-10-03 22:46:00,43.9,42.0,29.79,SE,135,0.0,0.0,93,0.00,CLR,,0.00,WeatherDisplay:10.37,2013-10-04 05:46:00,
2013-10-03 22:51:00,43.9,42.0,29.80,East,90,0.0,0.0,93,0.00,CLR,,0.00,WeatherDisplay:10.37,2013-10-04 05:51:00,
2013-10-03 22:56:00,43.7,41.8,29.80,East,90,0.0,0.0,93,0.00,CLR,,0.00,WeatherDisplay:10.37,2013-10-04 05:56:00,
2013-10-03 23:01:00,43.5,41.6,29.80,East,90,0.0,0.0,93,0.00,CLR,,0.00,WeatherDisplay:10.37,2013-10-04 06:01:00,
2013-10-03 23:06:00,43.3,41.5,29.79,East,90,0.0,0.0,93,0.00,CLR,,0.00,WeatherDisplay:10.37,2013-10-04 06:06:00,
2013-10-03 23:11:00,43.3,41.5,29.80,East,90,0.0,0.0,93,0.00,CLR,,0.00,WeatherDisplay:10.37,2013-10-04 06:11:00,
2013-10-03 23:16:00,43.3,41.5,29.80,East,90,0.0,0.0,93,0.00,CLR,,0.00,WeatherDisplay:10.37,2013-10-04 06:16:00,
2013-10-03 23:21:00,43.2,41.6,29.80,East,90,0.0,0.0,94,0.00,CLR,,0.00,WeatherDisplay:10.37,2013-10-04 06:21:00,
2013-10-03 23:26:00,43.3,41.7,29.80,SE,135,1.1,0.0,94,0.00,CLR,,0.00,WeatherDisplay:10.37,2013-10-04 06:26:00,
2013-10-03 23:31:00,43.7,42.1,29.80,SE,135,1.1,0.0,94,0.00,CLR,,0.00,WeatherDisplay:10.37,2013-10-04 06:31:00,
2013-10-03 23:36:00,44.1,42.4,29.80,East,90,1.1,0.0,94,0.00,CLR,,0.00,WeatherDisplay:10.37,2013-10-04 06:36:00,
2013-10-03 23:41:00,44.2,42.9,29.80,East,90,0.0,0.0,95,0.00,CLR,,0.00,WeatherDisplay:10.37,2013-10-04 06:41:00,
2013-10-03 23:46:00,44.6,43.3,29.80,East,90,0.0,0.0,95,0.00,CLR,,0.00,WeatherDisplay:10.37,2013-10-04 06:46:00,
2013-10-03 23:51:00,44.6,43.3,29.80,East,90,0.0,0.0,95,0.00,CLR,,0.00,WeatherDisplay:10.37,2013-10-04 06:51:00,
2013-10-03 23:56:00,44.8,43.4,29.80,East,90,0.0,0.0,95,0.00,CLR,,0.00,WeatherDisplay:10.37,2013-10-04 06:56:00,